Location: Iesi
(43.5167°N, 13.2333°E)
Time: 19:00:46
(UTC+00:00)

Cosmos 1238 Rocket - Pass Details

Date: 08 August 2020
Orbit: 376 x 1027 km, 82.9° (Epoch: 24 September)

Event Time Altitude Azimuth Distance (km) Brightness Sun altitude
Exits shadow 20:28:33 35° 42° (NE) 657 3.2 -19.8°
Drops below altitude 10° 20:30:31 10° 18° (NNE) 1,403 5.3 -20.0°
Sets 20:32:28 0° 13° (NNE) 2,253 6.5 -20.3°
